Temp
2 2 2 2 1 1 1 1 0 0 -0 -0 -0 -0 -1 -0 -0 -0 -0 -0 -0 -1 -1 -1 -1 -1 -1 -1 -0 0 0 0 1 1 1 1 1 2 1 1 1 1 1
2 2 1 1 1 1 1 0 0 -0 -1 -1 -1 -1 -1 -1 -1 -1 -1 -1 -1 -1 -1 -1 -1 -1 -1 -1 -0 -0 -0 0 0 1 1 1 1 1 1 1 1 1 1
1 1 1 1 1 1 0 0 -0 -0 -1 -1 -1 -1 -1 -1 -1 -1 -2 -2 -2 -1 -1 -1 -1 -1 -2 -1 -1 -1 -1 -1 -1 -0 0 1 0 1 1 1 1 1 1
1 1 1 1 0 0 -0 -1 -1 -1 -1 -1 -1 -1 -2 -2 -2 -2 -2 -2 -2 -2 -3 -2 -2 -2 -1 -2 -2 -2 -1 -1 -1 -1 -1 -1 -0 -0 0 1 1 0 1
1 1 1 0 -0 -0 -1 -1 -1 -1 -1 -1 -2 -2 -2 -2 -2 -2 -3 -3 -3 -3 -3 -3 -3 -2 -3 -3 -3 -3 -3 -2 -2 -1 -1 -1 -1 -1 -1 0 -1 -0 -1
0 0 -1 -1 -1 -1 -1 -2 -2 -2 -2 -2 -2 -2 -2 -2 -3 -3 -3 -4 -4 -5 -5 -5 -5 -5 -5 -5 -4 -4 -4 -3 -3 -2 -1 -1 -2 -2 -2 -1 -0 -0 -1
-0 -1 -1 -1 -1 -1 -2 -2 -2 -2 -2 -2 -2 -3 -3 -3 -4 -4 -4 -5 -5 -5 -6 -6 -6 -6 -6 -5 -5 -5 -5 -5 -6 -6 -4 -3 -3 -2 -2 -2 -2 -1 -1
-1 -1 -1 -1 -1 -2 -2 -3 -3 -3 -3 -3 -3 -3 -3 -4 -4 -5 -5 -6 -6 -7 -7 -7 -7 -7 -7 -6 -6 -6 -6 -6 -6 -6 -5 -5 -4 -3 -3 -3 -3 -3 -4
-1 -1 -2 -2 -2 -3 -3 -3 -3 -3 -3 -3 -3 -4 -5 -5 -5 -5 -6 -6 -7 -7 -7 -8 -8 -8 -8 -8 -7 -7 -7 -7 -7 -6 -6 -6 -6 -6 -6 -6 -5 -5 -5
-1 -1 -1 -2 -2 -3 -3 -3 -4 -4 -4 -4 -4 -4 -5 -5 -5 -6 -6 -7 -7 -8 -8 -8 -8 -8 -9 -8 -8 -8 -8 -7 -7 -7 -7 -7 -6 -6 -6 -5 -6 -5 -5
-1 -2 -2 -3 -3 -4 -4 -4 -4 -4 -5 -5 -5 -5 -6 -6 -7 -7 -7 -7 -7 -8 -8 -8 -9 -9 -9 -9 -9 -9 -8 -8 -8 -8 -8 -8 -8 -7 -7 -6 -6 -6 -5
-2 -3 -3 -4 -4 -4 -5 -5 -5 -5 -5 -6 -6 -6 -7 -7 -8 -8 -8 -8 -8 -9 -8 -9 -9 -9 -9 -9 -9 -9 -9 -8 -8 -9 -9 -9 -9 -9 -8 -8 -7 -7 -6
-3 -4 -4 -5 -5 -5 -5 -5 -5 -5 -6 -6 -7 -7 -8 -8 -9 -9 -9 -9 -9 -9 -10 -10 -10 -10 -10 -10 -10 -10 -9 -9 -9 -9 -10 -11 -10 -9 -9 -9 -8 -8 -8
-4 -4 -5 -5 -6 -5 -5 -5 -5 -6 -7 -7 -7 -8 -9 -10 -10 -10 -10 -10 -10 -10 -11 -11 -11 -11 -11 -11 -11 -10 -10 -10 -10 -10 -10 -11 -11 -10 -9 -9 -9 -9 -9
-4 -5 -5 -6 -6 -7 -6 -5 -6 -7 -7 -8 -9 -10 -11 -11 -11 -11 -11 -11 -11 -12 -12 -12 -12 -12 -12 -12 -11 -11 -11 -11 -11 -11 -12 -12 -11 -10 -10 -10 -10 -10 -10
-4 -5 -5 -6 -6 -6 -6 -6 -7 -8 -8 -9 -10 -11 -12 -12 -12 -12 -12 -12 -13 -13 -13 -13 -13 -13 -13 -13 -12 -12 -12 -12 -12 -13 -13 -12 -12 -11 -11 -11 -11 -11 -11
-5 -6 -6 -6 -6 -6 -7 -7 -8 -9 -10 -11 -11 -12 -12 -12 -13 -13 -13 -14 -14 -14 -14 -14 -14 -14 -13 -13 -13 -13 -13 -14 -15 -14 -13 -13 -13 -13 -12 -12 -12 -12 -12
-6 -6 -6 -7 -7 -7 -8 -8 -9 -10 -11 -12 -12 -13 -13 -13 -14 -14 -14 -15 -15 -15 -15 -15 -14 -14 -14 -14 -15 -15 -15 -14 -14 -14 -14 -14 -14 -14 -14 -13 -13 -13 -13
-7 -7 -7 -8 -8 -8 -9 -9 -10 -11 -12 -13 -13 -14 -14 -15 -15 -15 -15 -15 -15 -15 -15 -15 -15 -15 -15 -16 -15 -15 -15 -15 -14 -14 -14 -14 -14 -15 -15 -14 -14 -14 -14
-8 -8 -8 -8 -9 -9 -10 -10 -11 -12 -13 -14 -14 -15 -15 -15 -16 -16 -16 -16 -16 -16 -16 -15 -16 -16 -16 -16 -16 -15 -15 -15 -15 -15 -15 -15 -15 -15 -15 -15 -15 -15 -15
-9 -9 -9 -9 -9 -10 -11 -12 -13 -14 -14 -15 -15 -16 -16 -16 -16 -16 -16 -16 -16 -17 -17 -17 -16 -16 -16 -16 -16 -16 -16 -16 -16 -16 -16 -16 -16 -16 -16 -16 -16 -17 -16
-9 -9 -10 -10 -11 -11 -12 -13 -14 -15 -15 -16 -16 -16 -16 -17 -17 -16 -17 -17 -17 -17 -17 -17 -17 -17 -17 -17 -17 -17 -16 -16 -16 -16 -16 -16 -16 -17 -17 -17 -17 -17 -17
-10 -10 -10 -11 -12 -13 -14 -15 -15 -16 -16 -16 -17 -17 -17 -17 -17 -17 -17 -17 -17 -17 -17 -18 -18 -18 -18 -17 -17 -17 -17 -17 -17 -17 -16 -17 -17 -17 -18 -18 -18 -18 -18
-10 -11 -11 -12 -13 -14 -15 -16 -16 -16 -17 -17 -17 -17 -17 -17 -17 -17 -17 -18 -18 -18 -18 -18 -18 -18 -18 -18 -18 -17 -17 -17 -17 -17 -17 -18 -18 -18 -18 -18 -19 -19 -19
-12 -12 -13 -14 -15 -16 -16 -17 -17 -17 -17 -17 -17 -17 -17 -17 -18 -18 -18 -18 -18 -18 -18 -18 -18 -18 -18 -18 -18 -18 -18 -18 -17 -17 -18 -18 -18 -19 -19 -19 -19 -19 -20
-13 -14 -15 -15 -16 -17 -17 -17 -17 -17 -17 -17 -18 -18 -18 -18 -18 -18 -19 -19 -19 -19 -18 -18 -18 -18 -18 -18 -18 -18 -18 -18 -18 -18 -19 -19 -19 -19 -19 -19 -20 -20 -20
Height
3103 3102 3100 3099 3098 3096 3093 3090 3087 3084 3081 3079 3077 3074 3073 3071 3069 3067 3066 3065 3065 3065 3065 3064 3063 3063 3064 3064 3066 3067 3068 3070 3070 3072 3074 3074 3077 3079 3080 3085 3085 3089 3091
3100 3100 3099 3098 3096 3094 3091 3088 3085 3082 3079 3077 3075 3073 3071 3068 3066 3065 3063 3062 3061 3060 3058 3058 3057 3055 3056 3056 3056 3056 3058 3060 3061 3062 3064 3064 3067 3071 3072 3074 3077 3078 3080
3098 3097 3097 3095 3093 3090 3088 3085 3082 3079 3076 3074 3072 3070 3068 3066 3064 3062 3060 3058 3057 3055 3052 3050 3049 3048 3048 3047 3047 3047 3048 3050 3053 3052 3054 3055 3055 3058 3063 3065 3066 3066 3065
3097 3095 3093 3092 3090 3088 3084 3081 3078 3076 3073 3071 3068 3066 3064 3062 3060 3058 3057 3055 3052 3050 3048 3046 3043 3040 3039 3038 3038 3038 3038 3039 3043 3044 3045 3045 3045 3046 3049 3052 3057 3058 3058
3094 3093 3092 3089 3086 3083 3081 3078 3075 3072 3070 3069 3067 3064 3062 3060 3057 3054 3051 3049 3047 3044 3041 3039 3037 3035 3033 3032 3031 3030 3030 3030 3031 3034 3034 3036 3036 3037 3038 3040 3044 3049 3049
3092 3090 3087 3086 3083 3081 3078 3075 3074 3071 3068 3066 3064 3062 3059 3055 3053 3050 3047 3044 3041 3039 3036 3034 3032 3030 3028 3026 3025 3023 3022 3022 3022 3022 3023 3025 3027 3027 3028 3028 3032 3035 3038
3088 3086 3083 3080 3077 3075 3074 3072 3069 3067 3065 3062 3059 3056 3053 3050 3047 3044 3041 3039 3036 3033 3031 3029 3027 3025 3023 3021 3020 3018 3017 3017 3016 3015 3015 3015 3016 3017 3018 3018 3020 3024 3026
3083 3082 3080 3076 3073 3071 3069 3067 3064 3062 3059 3057 3055 3052 3048 3044 3040 3038 3035 3032 3030 3027 3024 3022 3021 3019 3017 3016 3014 3013 3011 3010 3010 3010 3009 3008 3007 3007 3008 3008 3010 3012 3016
3079 3077 3076 3074 3071 3068 3064 3061 3059 3056 3053 3050 3047 3043 3039 3036 3033 3030 3027 3024 3022 3020 3018 3015 3014 3013 3011 3009 3008 3007 3006 3004 3003 3003 3003 3002 3002 3001 3000 3001 3002 3004 3006
3073 3070 3069 3067 3064 3061 3059 3056 3053 3050 3047 3042 3039 3035 3031 3028 3025 3022 3019 3016 3014 3011 3009 3007 3006 3004 3003 3002 3001 2999 2997 2997 2995 2995 2994 2994 2994 2994 2994 2994 2995 2996 2998
3068 3064 3062 3061 3058 3056 3053 3050 3047 3043 3038 3034 3030 3026 3022 3019 3016 3013 3010 3007 3005 3002 3000 2999 2997 2995 2994 2993 2991 2990 2989 2988 2987 2987 2986 2986 2987 2987 2986 2986 2986 2987 2989
3063 3061 3057 3053 3052 3049 3046 3042 3038 3034 3029 3025 3020 3017 3013 3010 3007 3004 3001 2999 2995 2993 2991 2989 2987 2986 2985 2984 2983 2982 2981 2980 2979 2979 2979 2979 2980 2980 2980 2979 2978 2978 2979
3052 3050 3048 3046 3044 3041 3037 3032 3028 3024 3019 3016 3012 3008 3004 3001 2998 2994 2992 2990 2986 2984 2982 2980 2979 2978 2976 2976 2975 2974 2974 2973 2972 2972 2972 2973 2973 2973 2973 2972 2971 2971 2970
3043 3042 3041 3038 3035 3032 3027 3023 3019 3015 3011 3006 3003 2999 2995 2991 2988 2985 2982 2980 2978 2976 2974 2972 2971 2970 2969 2968 2968 2967 2966 2965 2965 2965 2965 2965 2966 2966 2965 2964 2964 2963 2963
3036 3034 3032 3029 3025 3022 3019 3015 3010 3006 3001 2997 2993 2989 2986 2983 2979 2976 2973 2971 2968 2967 2966 2965 2964 2963 2962 2961 2961 2960 2959 2958 2958 2958 2958 2959 2959 2958 2957 2957 2956 2956 2955
3028 3025 3021 3018 3015 3012 3009 3004 3001 2996 2991 2986 2983 2980 2977 2973 2970 2967 2964 2962 2960 2959 2959 2958 2957 2956 2955 2954 2954 2953 2952 2951 2951 2951 2951 2951 2951 2950 2949 2948 2947 2947 2946
3022 3018 3015 3011 3006 3002 2998 2994 2991 2986 2982 2977 2973 2970 2967 2963 2960 2958 2956 2955 2954 2953 2952 2951 2950 2949 2948 2947 2946 2945 2946 2945 2945 2945 2945 2944 2943 2942 2941 2939 2940 2939 2938
3014 3010 3006 3002 2998 2993 2989 2985 2980 2976 2972 2968 2964 2961 2958 2955 2953 2951 2949 2948 2947 2946 2945 2944 2943 2942 2941 2940 2939 2939 2939 2939 2938 2938 2937 2936 2936 2934 2932 2931 2931 2931 2930
3005 3001 2996 2992 2989 2984 2980 2976 2971 2966 2963 2959 2956 2953 2950 2948 2946 2945 2943 2942 2941 2940 2939 2938 2937 2935 2934 2934 2933 2932 2932 2931 2930 2930 2929 2928 2928 2926 2925 2923 2923 2923 2921
2995 2991 2988 2985 2981 2976 2971 2966 2961 2957 2954 2952 2949 2946 2944 2942 2940 2939 2937 2935 2934 2933 2932 2930 2929 2928 2928 2927 2926 2925 2924 2923 2923 2923 2922 2921 2921 2920 2918 2916 2915 2915 2913
2988 2983 2980 2976 2972 2967 2962 2957 2953 2948 2946 2944 2942 2940 2938 2936 2934 2932 2931 2929 2927 2926 2925 2924 2923 2922 2921 2920 2919 2918 2918 2918 2917 2917 2916 2915 2914 2913 2912 2909 2909 2906 2904
2979 2976 2972 2968 2963 2958 2953 2949 2945 2942 2939 2937 2936 2934 2931 2929 2927 2926 2924 2922 2921 2919 2918 2917 2915 2915 2914 2914 2914 2913 2913 2913 2912 2912 2911 2910 2908 2906 2905 2903 2901 2899 2896
2972 2969 2964 2959 2954 2949 2945 2941 2938 2936 2933 2931 2929 2927 2924 2922 2920 2919 2917 2916 2914 2913 2912 2911 2910 2910 2909 2909 2908 2908 2908 2907 2907 2906 2904 2903 2902 2900 2899 2897 2895 2892 2890
2963 2959 2954 2949 2945 2941 2937 2934 2932 2929 2927 2924 2922 2920 2917 2915 2913 2912 2910 2909 2907 2907 2906 2906 2905 2905 2905 2904 2903 2902 2901 2901 2900 2899 2898 2896 2894 2892 2890 2888 2886 2883 2881
2954 2950 2945 2941 2937 2934 2930 2927 2925 2922 2920 2917 2915 2912 2910 2908 2906 2905 2904 2902 2901 2901 2900 2900 2900 2900 2899 2899 2898 2897 2895 2894 2892 2891 2890 2888 2887 2885 2883 2881 2879 2876 2873
2944 2940 2936 2932 2930 2927 2924 2920 2918 2915 2912 2910 2907 2904 2902 2901 2900 2898 2897 2896 2895 2894 2894 2894 2894 2894 2893 2892 2891 2890 2889 2887 2885 2884 2883 2881 2880 2878 2876 2874 2872 2869 2866
Wind_Speed
5 6 8 9 10 13 15 16 17 18 19 19 19 19 19 18 17 16 15 18 20 23 27 28 28 33 33 39 43 45 47 47 44 45 47 46 41 40 40 48 39 40 40
3 6 7 9 10 14 16 16 16 17 17 18 18 17 19 20 21 20 19 18 18 23 27 29 33 37 38 38 37 38 40 41 46 49 49 49 46 40 35 35 39 44 52
6 8 9 11 14 16 16 15 16 16 16 15 16 17 17 18 19 21 23 23 23 22 23 24 30 36 36 38 39 38 38 38 35 40 44 45 45 45 42 41 44 36 45
8 12 12 13 14 17 16 15 15 14 14 14 15 16 17 18 19 21 22 24 24 22 23 24 24 26 28 32 35 37 37 37 36 39 39 41 42 41 45 44 38 43 22
8 12 17 17 16 17 17 16 15 14 15 16 17 17 18 20 21 22 24 25 25 26 26 26 25 23 22 22 25 29 33 36 37 36 37 39 40 42 43 45 43 38 40
11 13 17 20 18 18 18 17 18 20 20 20 21 21 22 23 24 25 26 27 27 26 26 26 24 22 22 21 22 22 21 23 24 28 34 38 39 42 44 45 46 46 47
11 13 20 24 20 19 20 21 22 22 23 23 23 24 25 26 27 28 29 29 29 29 27 26 27 26 25 23 21 20 19 21 21 23 23 26 29 35 38 41 43 45 43
11 17 24 23 21 21 21 21 23 25 25 26 28 30 30 30 31 31 31 32 31 31 29 29 28 27 25 23 19 19 19 18 17 20 22 25 25 26 27 31 34 33 31
15 18 24 22 20 21 21 23 27 27 27 29 30 31 31 32 33 34 34 34 34 33 31 30 30 30 29 28 32 28 27 26 26 25 22 22 24 27 29 28 30 27 26
22 23 30 28 23 22 22 28 27 29 32 33 33 33 34 34 35 35 35 36 35 34 33 32 32 33 35 36 36 36 34 32 30 26 23 22 22 24 28 30 31 29 29
28 33 41 34 24 22 26 30 32 33 31 34 36 35 35 36 36 36 36 37 38 37 34 33 32 32 34 35 34 33 32 28 25 23 22 19 19 20 22 25 29 31 31
37 44 37 29 24 27 31 33 33 32 33 36 38 38 39 39 38 35 36 36 37 37 35 32 32 31 31 31 30 30 30 28 24 21 19 19 20 20 21 22 23 25 29
37 38 36 25 27 30 33 36 36 35 36 38 41 42 41 39 37 35 34 34 36 37 34 32 30 28 28 29 31 30 28 27 26 23 20 20 21 22 23 24 24 25 26
39 37 29 29 29 32 34 36 36 36 37 40 42 41 39 38 38 38 36 34 34 33 32 30 28 26 26 27 28 27 26 25 24 23 21 22 23 24 25 25 26 27 27
28 27 31 28 30 34 33 35 36 35 36 38 39 37 38 38 38 37 36 33 31 30 28 27 25 24 25 25 26 26 25 23 22 22 22 24 25 25 27 27 28 28 28
32 34 35 37 35 32 33 34 34 35 38 38 38 38 38 37 36 33 30 28 26 25 25 24 24 23 23 24 25 25 23 23 22 22 24 26 26 27 28 30 30 30 30
33 34 34 35 34 33 32 34 36 36 37 37 38 37 36 34 31 28 25 24 23 23 23 23 23 23 24 24 25 25 22 22 23 24 25 27 27 27 28 31 29 29 31
29 34 36 34 33 34 35 36 36 35 36 36 36 34 31 29 28 26 25 23 23 23 23 24 25 25 24 23 22 24 23 24 25 25 24 24 25 26 27 29 28 29 30
34 36 35 33 34 35 36 36 35 34 34 33 31 29 27 26 25 25 24 24 23 24 25 26 25 23 22 22 23 25 24 23 23 23 23 22 21 22 23 26 26 26 28
35 31 31 33 35 36 37 35 33 31 30 29 27 26 25 24 23 24 24 25 26 26 26 25 22 21 22 24 24 23 21 20 19 17 19 21 22 22 24 27 28 27 29
28 29 32 35 36 36 34 32 30 28 27 26 25 24 24 24 24 25 26 26 25 23 21 22 23 23 22 21 20 18 16 17 17 18 19 21 22 23 25 27 27 29 32
29 32 35 36 36 35 33 30 27 25 25 24 24 24 24 25 26 25 24 23 23 23 23 22 21 19 17 16 17 17 17 18 18 19 21 22 24 24 24 25 26 28 31
32 36 37 36 35 33 30 27 25 24 24 25 25 26 26 25 25 25 26 25 23 21 20 17 16 16 16 16 17 18 18 19 20 21 22 22 21 21 22 24 25 28 30
35 37 37 35 33 30 28 25 25 26 26 26 26 26 26 26 26 26 24 21 20 18 17 16 16 16 16 17 18 19 20 20 21 21 20 20 20 22 23 24 25 27 28
36 36 35 33 30 28 27 26 26 26 27 27 28 28 27 26 25 23 21 19 18 18 18 17 17 17 17 18 19 19 20 21 20 20 19 20 21 21 23 24 25 26 28
36 35 34 32 29 27 27 27 27 28 28 28 29 28 26 25 24 22 21 19 18 18 18 18 18 18 18 17 17 18 19 19 20 19 20 21 22 23 24 24 24 25 27
Wind_Direction
317 326 333 334 336 336 336 336 335 335 337 339 338 339 342 339 339 337 315 295 283 269 251 245 248 258 261 258 257 257 255 255 257 258 256 257 258 256 264 261 261 262 245
349 352 345 341 343 342 337 336 336 336 334 331 331 332 333 335 337 332 328 324 310 286 276 269 261 259 262 263 260 256 257 257 257 258 260 262 261 259 258 260 258 262 251
14 1 353 348 342 341 340 336 334 332 331 329 324 323 324 326 329 329 327 324 318 315 310 292 276 268 265 263 263 261 260 259 258 259 259 261 262 258 255 255 260 259 249
17 5 351 341 338 338 332 326 324 324 325 324 321 320 319 319 319 317 314 314 314 308 301 301 299 293 279 265 263 265 263 262 259 258 258 258 262 264 261 256 253 254 251
341 354 353 338 328 330 326 321 321 325 325 322 320 318 316 315 314 313 314 315 316 314 312 304 301 299 294 284 269 266 263 263 261 256 256 256 256 259 261 263 256 249 253
317 332 343 339 325 324 324 320 324 329 325 323 322 318 314 312 311 309 309 312 314 313 311 306 303 301 299 300 301 292 281 270 266 260 255 254 252 252 255 258 257 261 256
304 330 334 329 316 316 324 326 326 327 324 318 313 310 310 309 308 307 306 306 306 307 306 304 298 296 296 293 289 292 292 282 284 283 269 253 258 257 255 257 258 256 259
292 321 325 318 309 309 314 318 321 319 317 316 315 312 309 307 306 303 302 299 298 300 297 297 293 289 289 285 286 292 289 290 287 273 270 278 274 271 263 268 266 264 261
284 317 326 313 301 300 299 307 311 310 310 310 307 303 302 301 301 300 297 294 293 296 293 289 288 282 279 277 282 285 281 282 287 286 281 268 263 270 271 276 271 274 259
277 309 321 312 297 291 291 301 304 307 310 306 302 300 299 298 297 296 295 293 293 291 289 284 283 280 276 275 279 282 280 279 279 273 273 272 270 263 259 259 262 264 261
280 298 310 307 293 285 295 308 305 303 301 298 296 294 293 295 296 295 294 293 294 292 289 283 280 280 279 278 278 278 275 271 268 268 264 266 273 271 269 267 263 260 257
295 298 301 302 293 297 305 304 306 304 297 291 290 291 293 297 295 293 294 296 293 291 287 282 279 280 279 280 280 276 271 267 264 267 270 274 276 277 276 274 271 269 263
298 299 302 291 289 302 306 305 302 297 291 289 288 289 293 294 293 294 294 294 292 291 287 283 280 280 279 279 277 273 271 268 266 264 267 272 276 278 278 278 277 276 274
296 298 293 289 306 306 306 304 299 294 291 289 290 291 291 292 295 297 299 296 292 289 285 281 279 278 277 276 275 274 271 269 268 270 275 280 281 281 280 278 277 277 276
295 294 294 297 303 312 309 301 298 295 293 290 290 291 292 295 298 300 298 295 290 286 281 279 278 277 276 276 274 274 272 272 274 277 280 281 281 282 282 281 280 279 277
294 290 291 308 318 310 302 300 298 295 294 293 293 292 294 296 298 298 295 292 288 284 282 279 279 279 279 279 278 276 277 278 279 279 282 283 283 284 283 283 282 282 281
291 303 312 313 308 303 300 298 296 295 294 294 293 294 296 299 299 297 295 290 286 284 283 282 282 282 281 281 281 281 284 286 286 284 283 283 284 284 283 282 285 285 284
313 314 311 305 300 299 299 299 298 297 295 294 293 296 298 299 298 296 294 290 288 286 285 285 284 282 281 282 287 287 289 288 286 285 284 283 283 284 284 285 286 284 283
311 311 304 299 298 298 298 299 299 298 296 295 296 297 297 296 295 293 292 291 290 289 287 284 283 283 285 287 286 286 287 286 285 287 288 289 289 290 290 290 289 289 288
307 300 297 298 299 301 302 302 301 299 296 294 294 295 294 293 292 291 291 292 291 289 286 286 289 290 287 285 285 286 287 288 290 293 294 296 297 296 295 293 294 295 288
299 300 301 301 302 303 303 301 299 296 295 294 294 293 293 293 292 292 292 291 290 292 294 291 287 285 284 284 285 286 288 290 293 295 297 298 297 295 295 295 299 295 292
303 305 305 304 305 303 301 299 296 295 293 292 292 292 292 292 294 293 292 291 290 287 286 285 284 282 281 279 281 284 288 290 292 294 296 295 295 297 298 296 293 293 294
306 306 304 304 303 303 301 297 295 292 290 291 291 292 292 292 292 290 289 288 286 284 284 282 279 281 282 283 285 286 287 290 291 293 295 296 297 295 293 293 294 294 295
303 303 303 303 302 300 297 293 291 291 292 292 291 291 291 291 289 288 285 284 282 281 278 278 277 278 279 280 284 288 290 292 294 295 297 299 298 300 303 303 304 303 303
302 302 301 301 297 294 291 290 290 291 291 292 291 290 290 289 286 283 282 280 279 277 277 276 276 276 277 279 280 282 286 291 295 301 304 305 306 305 303 303 304 304 303
302 301 299 297 293 291 290 290 291 292 292 291 291 290 289 286 282 281 282 279 276 275 274 275 275 274 276 277 280 286 293 297 300 305 305 307 306 306 305 304 303 303 303